Regional Weather Roundup
Issued by NWS Little Rock, AR

Home | Current Version | Previous Version | Text Only | Print | Product List | Glossary On
Versions: 1 2 3 4 5 6 7 8 9 10 11 12 13 14 15 16 17 18 19 20 21 22 23 24 25 26 27 28 29 30 31 32 33 34 35 36 37 38 39 40 41 42 43 44 45 46 47 48 49 50
000
ASUS44 KLZK 021305
RWRLZK

WEATHER ROUNDUP FOR ARKANSAS
NATIONAL WEATHER SERVICE LITTLE ROCK AR
800 AM CDT TUE JUN 02 2015

NOTE: "FAIR" INDICATES FEW OR NO CLOUDS BELOW 12,000 FEET WITH NO
SIGNIFICANT WEATHER AND/OR OBSTRUCTIONS TO VISIBILITY.

ARZ001-003-010-029-021400-
NORTHWEST ARKANSAS

CITY           SKY/WX    TMP DP  RH WIND       PRES   REMARKS
FAYETTEVILLE   SUNNY     63  61  93 CALM      30.09R
FORT SMITH     SUNNY     69  63  81 E8        30.07S
HARRISON       CLOUDY    60  59  96 E5        30.12R
BENTONVILLE    MOSUNNY   64  59  82 SE7       30.09S
ROGERS         MOSUNNY   64  61  90 SE9       30.10R
SILOAM SPGS    PTSUNNY   63  55  77 E5        30.10R
HIGHFILL       PTSUNNY   64  62  93 SE6       30.09R
SPRINGDALE     MOSUNNY   64  61  88 E6        30.11S
$$

ARZ004-005-016-021400-
NORTH CENTRAL ARKANSAS

CITY           SKY/WX    TMP DP  RH WIND       PRES   REMARKS
BATESVILLE     CLOUDY    63  57  82 N6        30.13R
FLIPPIN        CLOUDY    61  57  88 E5        30.11S
MTN HOME       CLOUDY    61  58  90 E5        30.12S
$$

ARZ040-041-021400-
WEST CENTRAL ARKANSAS

CITY           SKY/WX    TMP DP  RH WIND       PRES   REMARKS
MENA           CLOUDY    66  64  94 CALM      30.11R
MOUNT IDA      CLOUDY    66  63  90 CALM      30.08S
$$

ARZ009-017-025-026-028-021400-
NORTHEAST ARKANSAS

CITY           SKY/WX    TMP DP  RH WIND       PRES   REMARKS
CORNING          N/A     63  59  88 N6        30.13R
JONESBORO      SUNNY     64  58  80 NE7       30.11R
NEWPORT        PTSUNNY   64  62  93 N7        30.13R
WALNUT RIDGE   SUNNY     63  57  82 N8        30.12R
BLYTHEVILLE    CLOUDY    63  60  90 N10       30.11R
NW BLYTHEVILLE CLOUDY    63  57  82 N9        30.11
$$

ARZ022-023-033-042-044-021400-
CENTRAL ARKANSAS

CITY           SKY/WX    TMP DP  RH WIND       PRES   REMARKS
LITTLE ROCK    CLOUDY    66  60  81 NE5       30.11R
N LITTLE ROCK    N/A     65  63  93 E7        30.11R
JACKSONVILLE   CLOUDY    64  61  90 NE5       30.10R
SEARCY         CLOUDY    65  60  84 NE7       30.13R
HOT SPRINGS    CLOUDY    67  61  81 SE6       30.10R
RUSSELLVILLE   CLOUDY    66  61  84 E6        30.10S
CLINTON        PTSUNNY   64  59  82 CALM      30.12S FOG
$$

ARZ036-021400-
EAST ARKANSAS

CITY           SKY/WX    TMP DP  RH WIND       PRES   REMARKS
WEST MEMPHIS   CLOUDY    64  63  96 NE7       30.10R
$$

ARZ050-053-066-070-073-021400-
SOUTHWEST ARKANSAS

CITY           SKY/WX    TMP DP  RH WIND       PRES   REMARKS
ARKADELPHIA    FAIR      69  66  90 E3        30.11R
CAMDEN         SUNNY     68  61  77 CALM      30.09S
TEXARKANA      SUNNY     68  64  87 SE7       30.08R
EL DORADO      SUNNY     67  63  87 NE3       30.10R
DE QUEEN       SUNNY     68  65  90 E5        30.07R
$$

ARZ056-057-069-021400-
SOUTHEAST ARKANSAS

CITY           SKY/WX    TMP DP  RH WIND       PRES   REMARKS
PINE BLUFF     SUNNY     66  62  87 NE7       30.10R
STUTTGART      CLOUDY    64  59  82 MISG      30.11R
MONTICELLO     SUNNY     67  64  90 NE6       30.10R

$$




USA.gov is the U.S. government's official web portal to all federal, state and local government web resources and services.